LSZALOWI

Guest
Details From LSZA - Lugano
To LOWI - Innsbruck Kranebitten
Flight Number -
Tags generated
Created
Modified
Stats Distance 126 nm / 233 km
Max Altitude 4,800 ft / 1,463 m
Waypoints 3
Social Downloads 19
Likes 0
Share VATSIM

Download

Looking for another format? Having issues loading an existing format? Contact us
Advertisement - Login to hide

Notes

Basic altitude profile: - Ascent Rate: 2500ft/min - Ascent Speed: 250kts - Cruise Altitude: 35000ft - Cruise Speed: 420kts - Descent Rate: 1500ft/min - Descent Speed: 250kts Options: - Use NATs: yes - Use PACOTS: yes - Use low airways: yes - Use high airways: yes

Route

LSZA OTSIS LOWI

ID Type Via Altitude Latitude Longitude Leg Dist Tot Dist Heading (true) Name
O LSZA APT - 0 ft / 0 m 46.00428˚ 8.91058˚ - 0 nm - Lugano
OTSIS FIX - 4,800 ft / 1,463 m 47.10074˚ 10.84546˚ 103 nm 103 nm 50° / 51° -
O LOWI APT - 0 ft / 0 m 47.26023˚ 11.34397˚ 22 nm 126 nm 65° / 65° Innsbruck Kranebitten

Altitude Profile

Advertisement - Login to hide

LSZA

Details ICAO LSZA (LUG)
Name Lugano
Region Switzerland
Timezone Europe/Zurich (UTC+2.0)
Stats Elevation 915 ft / 279 m (AMSL)
Location 46.004275° 8.910579°
Runways 1
Magnetic Variation 2.476° E

METAR

LSZA 270120Z AUTO VRB02KT CAVOK 18/14 Q1020

Decode

TAF

Not found

Departure Runways

ID Width Length Bearing (true) Bearing (mag) Surface Threshold Offset Overrun Length
01 98 ft / 30 m 4,430 ft / 1,350 m 18.79° 16.31° Asphalt 361 ft / 110 m 0 ft / 0 m
19 98 ft / 30 m 4,430 ft / 1,350 m 198.79° 196.31° Asphalt 673 ft / 205 m 0 ft / 0 m

LOWI

Details ICAO LOWI (INN)
Name Innsbruck Kranebitten
Region Austria
Timezone Europe/Vienna (UTC+2.0)
Stats Elevation 1,906 ft / 581 m (AMSL)
Location 47.260226° 11.343967°
Runways 1
Magnetic Variation 3.072° E

METAR

LOWI 270120Z AUTO 32004KT 9999 FEW110 BKN220 16/13 Q1021

Decode

TAF

TAF LOWI 262315Z 2700/2724 27004KT CAVOK TX26/2713Z TN14/2704Z BECMG 2709/2711 09006KT 9999 FEW070 BKN300 TEMPO 2714/2718 09013KT SCT070 FEW070CB PROB30 TEMPO 2715/2719 27015G25KT TSRA SCT060CB BKN080 BECMG 2718/2720 VRB02KT CAVOK

Decode

Destination Runways

ID Width Length Bearing (true) Bearing (mag) Surface Threshold Offset Overrun Length
08 148 ft / 45 m 6,545 ft / 1,995 m 81.02° 77.95° Asphalt 338 ft / 103 m 0 ft / 0 m
26 148 ft / 45 m 6,545 ft / 1,995 m 261.04° 257.97° Asphalt 0 ft / 0 m 0 ft / 0 m

Approach Navaids

Runway Type Ident Frequency Range Bearing (true) Bearing (mag) Slope Elevation
26 Localiser OEV 111.10 MHz 27 nm / 50 km 256.00° 252.93° - 1,906 ft / 581 m (AMSL)
26 Localiser OEJ 109.70 MHz 30 nm / 56 km 69.00° 65.93° - 1,906 ft / 581 m (AMSL)
26 Glidescope OEV 111.10 MHz 18 nm / 33 km 256.00° 252.93° 3.80° 1,911 ft / 582 m (AMSL)
26 DME OEJ 109.70 MHz 30 nm / 56 km - - - 1,906 ft / 581 m (AMSL)
26 DME OEV 111.10 MHz 27 nm / 50 km - - - 1,911 ft / 582 m (AMSL)

Popular Alternatives